Regional Weather Roundup
Issued by NWS

Home | Current Version | Previous Version | Graphics & Text | Print | Product List | Glossary On
Versions: 1 2 3 4 5 6 7 8 9 10 11 12 13 14 15 16 17 18 19 20 21 22 23 24 25 26 27
000
ASUS45 KTFX 172310
RWRMT
MONTANA REGIONAL WEATHER ROUNDUP
NATIONAL WEATHER SERVICE GREAT FALLS MT
400 PM MST FRI NOV 17 2017

NOTE: "FAIR" INDICATES FEW OR NO CLOUDS BELOW 12000 FEET WITH NO
SIGNIFICANT WEATHER AND/OR OBSTRUCTIONS TO VISIBILITY.

MTZ001>007-043-180000-
WEST OF THE DIVIDE

CITY           SKY/WX    TMP DP  RH WIND       PRES   REMARKS
KALISPELL      CLOUDY    39  26  59 SW15      29.88R WCI  31
MISSOULA       CLOUDY    40  22  48 W18       29.95R
BUTTE          MOCLDY    31  16  54 NW16G24   29.87R WCI  20
MULLAN PASS    CLOUDY    22  20  92 W8        29.89R WCI  12
ANACONDA         N/A     30  16  55 W17       29.89R WCI  18
EUREKA           N/A     39  21  48 MISG      29.87R
HAMILTON         N/A     37  21  52 SE9G16    29.96R WCI  31
LIBBY            N/A     39  28  65 CALM      29.91R
PLAINS           N/A     41  24  51 S12       29.97R
RONAN            N/A     38  25  60 SW7       29.99R
$$

MTZ008-052>055-180000-
SOUTHWEST MONTANA

CITY           SKY/WX    TMP DP  RH WIND       PRES   REMARKS
BOZEMAN        FAIR      31  23  72 NW21      29.87R WCI  18
DILLON         FAIR      34   7  32 W13G31    29.89R WCI  25
W YELLOWSTONE  FAIR      28  10  47 W12G18    29.82R WCI  18
ENNIS          PTCLDY    34  10  37 W22G30    29.91R WCI  22
TWIN BRIDGES     N/A     36   9  32 SW6       29.89R WCI  31
$$

MTZ009-010-012-014-046-048-049-054-180000-
EAST SLOPES AND CENTRAL MONTANA

CITY           SKY/WX    TMP DP  RH WIND       PRES   REMARKS
CUT BANK       FAIR      34  22  61 W20       29.70R WCI  23
GREAT FALLS    FAIR      38  16  40 W22G31    29.74R WCI  27
MALMSTROM AFB  FAIR      40  16  37 W18G29    29.76R
HELENA         FAIR      36  22  56 W23G35    29.82R WCI  24
BOWMANS CRNR   FAIR      34  17  51 W18       29.74R WCI  23
CHOTEAU          N/A     36  19  51 W20G25    29.74R WCI  25
FAIRFIELD      FAIR      36  18  47 W24G31    29.73R WCI  25
POWER          FAIR      37  18  46 W17G25    29.73R WCI  27
RAYNESFORD     FAIR      38  14  36 W29       29.74R WCI  27
ULM            FAIR      38  20  48 W22G33    29.76R WCI  27
$$

MTZ011-013-016-021-045-047-050-051-180000-
NORTH CENTRAL MONTANA

CITY           SKY/WX    TMP DP  RH WIND       PRES   REMARKS
HAVRE          FAIR      37  29  72 SW9       29.69R WCI  30
LEWISTOWN      MOCLDY    38  18  44 W20G32    29.72R WCI  28
N BAR RANCH    MOCLDY    37  14  38 W15G25    29.72R WCI  28
CHINOOK          N/A     37  27  65 W10       29.68R WCI  30
DENTON         MOCLDY    40  18  41 W21G26    29.67R
GEYSER         FAIR      37  18  46 W24       29.73R WCI  25
GRASS RANGE    FAIR      40  17  40 W20G28    29.67R
STANFORD       FAIR      36  15  42 W21G28    29.72R WCI  25
WINIFRED       MOCLDY    40  19  43 W14G21    29.69R
$$

MTZ017>020-022>027-061-062-180000-
NORTHEAST MONTANA

CITY           SKY/WX    TMP DP  RH WIND       PRES   REMARKS
GLASGOW        FAIR      34  24  67 NW7       29.67R WCI  28
GLENDIVE       CLOUDY    43  23  45 W8        29.65R
JORDAN           N/A     40  26  57 W13       29.67R
SIDNEY         FAIR      34  24  67 N3        29.67R
WOLF POINT     CLOUDY    38  25  59 CALM      29.67R
MALTA          CLEAR     34  27  75 SW5       29.68R
PLENTYWOOD       N/A     27  19  74 CALM      29.67R
POPLAR           N/A     37  25  60 CALM      29.68R
SCOBEY           N/A     29  17  60 S3        29.66R
$$

MTZ028>42-056>058-180000-
SOUTHCENTRAL AND SOUTHEAST MONTANA

CITY           SKY/WX    TMP DP  RH WIND       PRES   REMARKS
BAKER          FAIR      38  32  79 W9        29.65R WCI  31
BILLINGS       FAIR      41  18  39 NW20      29.75R
LIVINGSTON     MOCLDY    38  17  42 W16G30    29.78R WCI  29
MILES CITY     MOCLDY    45  32  60 W9        29.68R
BIG TIMBER     CLEAR     37  18  44 W17       29.81R WCI  28
EKALAKA          N/A     40  28  62 W5        29.67R
FORSYTH          N/A     45  28  53 W8        29.69R
HARLOWTON      FAIR      33  21  60 W29G36    29.73R WCI  20
LAUREL           N/A     41  19  42 W15       29.77R
ROUNDUP          N/A     42  18  38 SW13      29.67R
$$

REGIONAL REPORTS...DAKOTAS

CITY           SKY/WX    TMP DP  RH WIND       PRES   REMARKS
WILLISTON      FAIR      34  19  54 CALM      29.67R
MINOT          FAIR      24  14  65 N3        29.69R
DICKINSON      FAIR      37  23  56 S5        29.63R
BEACH          FAIR      39  30  70 W8        29.68R
CROSBY         FAIR      18  12  79 N7        29.71R WCI   8
TIOGA          FAIR      28  19  69 SE3       29.67R
WATFORD CITY   FAIR      32  19  59 N5        29.66R
BISMARCK       FAIR      35  25  66 NE5       29.70F
GRAND FORKS    MOCLDY    20  15  81 NW6       29.73R WCI  12
FARGO          FAIR      30  21  69 NW9       29.71R WCI  22
BUFFALO SD       N/A     40  31  70 SW9       29.60R
RAPID CITY     CLOUDY    39  37  92 N8        29.67R
$$

REGIONAL REPORTS...WYOMING/IDAHO/WASHINGTON

CITY           SKY/WX    TMP DP  RH WIND       PRES   REMARKS
GILLETTE       CLOUDY    35  32  88 W12       29.69R WCI  27
SHERIDAN       CLOUDY    36  33  89 N5        29.71R
BUFFALO WY     CLOUDY    34  27  75 NW15      29.73R WCI  24
CODY           MOCLDY    33  23  66 W10       29.76R WCI  25
YELLOWSTONE LA   N/A     21  14  74 NW7       29.80R WCI  12
IDAHO FALLS    MOCLDY    40  26  57 W15       29.91R
SALMON         FAIR      37  16  42 NW9       30.00R WCI  30
BOISE          FAIR      46  22  38 NW17G28   30.13R
SPOKANE        FAIR      42  28  57 SW25G31   30.00R
$$

REGIONAL REPORTS...ALBERTA

CITY           SKY/WX    TMP DP  RH WIND       PRES   REMARKS
EDMONTON       CLEAR      9   0  66 CALM      29.79R
CALGARY        CRYSTALS   9   3  78 N7        29.72  WCI  -3
LETHBRIDGE     PTCLDY    10   7  85 E5        29.75R
MEDICINE HAT   PTCLDY    12   7  79 N8        29.79R WCI   1
$$

REGIONAL REPORTS...SASKATCHEWAN

CITY           SKY/WX    TMP DP  RH WIND       PRES   REMARKS
SWIFT CURRENT  PTCLDY    12   7  79 N7        29.70R WCI   2
REGINA         PTCLDY     5   0  78 W6        29.74R WCI  -6
SASKATOON      FLURRIES  10   5  79 NW17      29.78R WCI  -7
$$




USA.gov is the U.S. government's official web portal to all federal, state and local government web resources and services.